Regional Weather Roundup
Issued by NWS Upton, NY

Current Version | Previous Version | Text Only | Print | Product List | Glossary On
Versions: 1 2 3 4 5 6 7 8 9 10 11 12 13 14 15 16 17 18 19 20 21 22 23 24 25 26 27 28 29 30 31 32 33 34 35 36 37 38 39 40 41 42 43 44 45 46 47 48 49 50
000
ASUS41 KOKX 301108
RWROKX

REGIONAL WEATHER ROUNDUP
NATIONAL WEATHER SERVICE NEW YORK NY
700 AM EDT SAT MAY 30 2015

NOTE: "FAIR" INDICATES FEW OR NO CLOUDS BELOW 12,000 FEET WITH NO
SIGNIFICANT WEATHER AND/OR OBSTRUCTIONS TO VISIBILITY.

NYZ071-072-176-178-NJZ106-104-301200-
NEW YORK CITY METRO AREA


CITY           SKY/WX    TMP DP  RH WIND       PRES   REMARKS
CENTRAL PARK   SUNNY     69  64  84 VRB7      30.23S
LAGUARDIA APRT MOSUNNY   68  62  81 S7        30.21R
KENNEDY INTL   MOSUNNY   66  63  90 S5        30.23R
NEWARK/LIBERTY MOSUNNY   69  65  86 S6        30.21S
BRNX BOT. GARD   N/A     68  63  83 SE7       30.22S
TETERBORO      MOSUNNY   68  63  84 S5        30.20R
$$

NYZ177-179-078>081-301200-
LONG ISLAND NEW YORK

CITY           SKY/WX    TMP DP  RH WIND       PRES   REMARKS
FARMINGDALE    CLOUDY    65  63  93 SW3       30.23S
ISLIP          FOG       65  64  97 SW8       30.22R VSB 1
SHIRLEY        CLOUDY    65  63  93 S3        30.24S
WESTHAMPTON    FOG       63  63 100 SW6       30.25S VSB 1/4
MONTAUK POINT    N/A     60  59  96 VRB3      30.26R
$$

NYZ052-065-067-301200-
HUDSON VALLEY

CITY           SKY/WX    TMP DP  RH WIND       PRES   REMARKS
WHITE PLAINS   SUNNY     63  62  97 SE5       30.21S FOG
NEWBURGH       NOT AVBL
MONTGOMERY     CLOUDY    64  61  90 CALM      30.19S
POUGHKEEPSIE   CLOUDY    67  61  81 SE6       30.18S
ALBANY         MOSUNNY   68  57  68 S16       30.14S
$$

NJZ001-105-106-008-010-013-015-019>022-104-301200-
NEW JERSEY

CITY           SKY/WX    TMP DP  RH WIND       PRES   REMARKS
NEWARK/LIBERTY MOSUNNY   69  65  86 S6        30.21S
TETERBORO      MOSUNNY   68  63  84 S5        30.20R
CALDWELL       MOSUNNY   65  59  81 CALM      30.21S
MORRISTOWN     MOSUNNY   64  64 100 CALM      30.22R
SOMERVILLE     SUNNY     62  58  86 NW3       30.19S
SUSSEX         PTSUNNY   64  59  83 CALM      30.21S
ANDOVER          N/A     66  63  90 CALM      30.21S
TRENTON        CLOUDY    67  65  93 S8        30.20S FOG
MILLVILLE      PTSUNNY   68  67  96 VRB3      30.22S
ATLANTIC CITY  CLOUDY    68  66  93 S9        30.23R
WRIGHTSTOWN    FOG       64  64 100 S10       30.19F VSB 3/4
TOMS RIVER     CLOUDY   N/A N/A N/A S5        30.22S
BELMAR         SUNNY     66  59  77 S5        30.22S
$$

PAZ047>061-062-071-301200-
EASTERN PENNSYLVANIA

CITY           SKY/WX    TMP DP  RH WIND       PRES   REMARKS
PHILADELPHIA   PTSUNNY   69  65  86 S6        30.21S
ALLENTOWN      PTSUNNY   69  64  84 S7        30.19S
SCRANTON       MOSUNNY   72  65  78 SW6       30.17S
$$

CTZ002-004>006-009-010-012-RIZ004-006-007-MAZ004-011-015-301200-
SOUTHERN NEW ENGLAND
 IN CT

CITY           SKY/WX    TMP DP  RH WIND       PRES   REMARKS
BRADLEY INTL   PTSUNNY   62  59  90 S7        30.20R
HARTFORD       CLOUDY    61  59  93 S6        30.21R
DANBURY        SUNNY     64  58  80 CALM      30.23R
WTRBRY/OXFORD  CLOUDY    61  55  82 CALM      30.24S VSB 1/4
BRIDGEPORT     PTSUNNY   64  62  93 SW5       30.22S FOG
MERIDEN        FOG       61  59  93 VRB6      30.22S VSB 1/4
NEW HAVEN      CLOUDY    61  61 100 CALM      30.23R FOG
CHESTER        FOG       59  59 100 CALM      30.24S VSB<1/4
GROTON         FOG       60  59  96 CALM      30.23S VSB<1/4
WILLIMANTIC    CLOUDY    57  56  96 S5        30.24R FOG

 IN RI

CITY           SKY/WX    TMP DP  RH WIND       PRES   REMARKS
PROVIDENCE     FOG       60  59  96 S6        30.24R VSB 3/4
BLOCK ISLAND   CLOUDY    59  55  88 SW8       30.26R VSB 1/4
WESTERLY       FOG       59  59 100 S3        30.25R VSB<1/4

 IN MA

CITY           SKY/WX    TMP DP  RH WIND       PRES   REMARKS
BOSTON         MOSUNNY   59  57  93 S9        30.21S
WORCESTER      SUNNY     64  58  80 SW12      30.21S
WESTFIELD      PTSUNNY   61  58  90 S5        30.20S FOG
PROVINCETOWN   CLOUDY    61  57  88 SW13      30.24S VSB 1/4
NANTUCKET      PTSUNNY   62  60  93 S9        30.26R
$$

ANZ330-335-338-340-345-350-353-355-301200-
COASTAL MARINE OBSERVATIONS


STATION/POSITION TIME  SKY/WX   TEMP    WIND        PRES    VSBY  WAVE
                                AIR SEA DIR/SP/G                  HT/PER
                 (UTC)          (F)     (DEG/KT/KT) (MB)    (MI)  (FT/S)
NY HARB ENTRANCE 1050            63 62  200/ 10/ 10 1022.9          2/ 9
4S FIRE IS       1003               59                N/A           2/ 9
20S FIRE ISLAND  1050            61 59  180/  6/  8 1023.6          2/ 9
GREAT SOUTH BAY  1000            65 69  250/ 10/ 10   N/A
23SW MTP         1050            59 56  200/  8/  8 1024.1          3/ 9
HUDSON CANYON    NOT AVBL
KINGS POINT      1000            64 61  180/  5/  7 1022.5
CENTRAL LI SOUND 1030            58 59  140/  4/  6   N/A
EASTERN LI SOUND 1000            55      80/  4/  4   N/A
ROBBINS REEF     1000            65     160/  7/  8 1021.8
$$


>>>>>>>>>>>>>>>>>>>>>>>>>>>> KEY <<<<<<<<<<<<<<<<<<<<<<<<<<<
>                                                          <
>     SKY/WX - SKY CONDITION/PRESENT WEATHER               <
>     TMP    - TEMPERATURE IN FAHRENHEIT                   <
>     DP     - DEWPOINT IN FAHRENHEIT                      <
>     RH     - RELATIVE HUMIDITY IN PERCENT                <
>     WIND   - DIRECTION AND SPEED IN MPH                  <
>     PRES   - MEAN SEA LEVEL PRESSURE IN INCHES OF HG     <
>     WCI    - WIND CHILL INDEX                            <
>     VSB    - VISIBILITY IN MILES                         <
>     HX     - HEAT INDEX                                  <
>     TC     - TEMPERATURE IN CELSIUS                      <
>     VRB    - VARIABLE WIND DIRECTION                     <
>                                                          <
>>>>>>>>>>>>>>>>>>>>>>>>>>>> KEY <<<<<<<<<<<<<<<<<<<<<<<<<<<





USA.gov is the U.S. government's official web portal to all federal, state and local government web resources and services.